Regional Weather Roundup
Issued by NWS

Home | Current Version | Previous Version | Graphics & Text | Print | Product List | Glossary On
Versions: 1 2 3 4 5 6 7 8 9 10 11 12 13 14 15 16 17 18 19 20 21 22 23 24 25 26 27 28 29 30 31 32 33 34 35 36 37 38 39 40 41 42 43 44 45 46 47 48 49 50
000
ASUS43 KOAX 280602
RWRNE

WEATHER ROUNDUP FOR NEBRASKA
NATIONAL WEATHER SERVICE OMAHA NE
100 AM CDT MON JUL 28 2014

NOTES: SATELLITE DATA IS BEING USED TO AUGMENT CLOUD COVER ABOVE
       12000 FEET.
       "FAIR" INDICATES FEW OR NO CLOUDS BELOW 12,000 FEET WITH NO
       SIGNIFICANT WEATHER AND/OR OBSTRUCTIONS TO VISIBILITY.

  * THESE STATIONS DO NOT REPORT WEATHER SUCH AS RAIN...SNOW OR FOG.

NEZ001>004-019>022-054>056-280700-
NEBRASKA PANHANDLE

CITY           SKY/WX    TMP DP  RH WIND       PRES   REMARKS
SCOTTSBLUFF    CLEAR     67  50  54 E10       30.32R
6HR MIN TEMP:  67; 6HR MAX TEMP:  86;

ALLIANCE       CLEAR     59  48  67 SE5       30.33S
6HR MIN TEMP:  59; 6HR MAX TEMP:  86;

CHADRON        CLEAR     60  50  69 N3        30.32R
6HR MIN TEMP:  59; 6HR MAX TEMP:  84;

KIMBALL        PTCLDY    68  48  49 S9        30.35S
SIDNEY         MOCLDY    65  48  54 SE8       30.35R
6HR MIN TEMP:  64; 6HR MAX TEMP:  85;

$$

NEZ057>060-069>072-079>082-280700-
SOUTHWEST NEBRASKA

CITY           SKY/WX    TMP DP  RH WIND       PRES   REMARKS
NORTH PLATTE   CLEAR     57  49  74 E3        30.29S
6HR MIN TEMP:  56; 6HR MAX TEMP:  84;

IMPERIAL       PTCLDY    64  51  62 SE3       30.31R
6HR MIN TEMP:  64; 6HR MAX TEMP:  87; 6HR PCP: TRACE;

LEXINGTON      CLEAR     61  55  80 NE6       30.28R
MCCOOK         PTCLDY    65  53  65 CALM      30.27R
6HR MIN TEMP:  64; 6HR MAX TEMP:  89;

OGALLALA       CLEAR     58  52  78 E3        30.31S
$$

NEZ005>010-023>029-035>040-094-280700-
NORTH CENTRAL NEBRASKA

CITY           SKY/WX    TMP DP  RH WIND       PRES   REMARKS
VALENTINE      CLEAR     60  51  72 NE3       30.31S
6HR MIN TEMP:  60; 6HR MAX TEMP:  81;

AINSWORTH      CLEAR     58  52  80 CALM      30.31R
BROKEN BOW     CLEAR     61  53  75 CALM      30.29R
6HR MIN TEMP:  60; 6HR MAX TEMP:  83;

O`NEILL        CLEAR     58  53  83 NE6       30.30R
ORD            CLEAR     60  55  83 NE5       30.27R
6HR MIN TEMP:  58; 6HR MAX TEMP:  81;

$$

NEZ041-046>049-061>064-073>077-083>087-280700-
SOUTH CENTRAL NEBRASKA

CITY           SKY/WX    TMP DP  RH WIND       PRES   REMARKS
GRAND ISLAND   CLEAR     62  57  83 CALM      30.26R
6HR MIN TEMP:  62; 6HR MAX TEMP:  83;

AURORA         CLEAR     62  60  93 NE3       30.25S
HASTINGS       CLEAR     63  56  78 NE5       30.25R
6HR MIN TEMP:  63; 6HR MAX TEMP:  82;

HEBRON         CLEAR     65  58  77 CALM      30.23R
HOLDREGE       CLEAR     62  56  81 CALM      30.26R
KEARNEY *      CLEAR     61  54  77 N6        30.27R
YORK             N/A     59  59 100 N7        30.25R
$$

NEZ011>018-030>034-042>045-280700-
NORTHEAST NEBRASKA

CITY           SKY/WX    TMP DP  RH WIND       PRES   REMARKS
NORFOLK        CLEAR     60  54  80 NW5       30.25R
6HR MIN TEMP:  60; 6HR MAX TEMP:  78;

ALBION         CLEAR     60  55  85 CALM      30.27R
BLAIR          CLEAR     62  55  78 NW5       30.21R
COLUMBUS *     CLEAR     61  54  77 N7        30.25R
FREMONT        CLEAR     63  57  80 NW5       30.22S
WAYNE          CLEAR     58  56  91 NW7       30.24S
$$

NEZ050>053-065>068-078-088>093-280700-
SOUTHEAST NEBRASKA

CITY           SKY/WX    TMP DP  RH WIND       PRES   REMARKS
LINCOLN        CLEAR     66  57  72 N12       30.23R
6HR MIN TEMP:  66; 6HR MAX TEMP:  82;

OMAHA EPPLEY   CLEAR     64  55  72 NW9       30.20R
6HR MIN TEMP:  64; 6HR MAX TEMP:  79;

BEATRICE       CLEAR     62  58  87 N6        30.20S
NEBRASKA CITY  CLEAR     62  57  84 N3        30.19R
PLATTSMOUTH    CLEAR     64  57  77 N6        30.19S
$$

NEZ044-045-051>053-067-280700-
OMAHA AREA

CITY           SKY/WX    TMP DP  RH WIND       PRES   REMARKS
OMAHA EPPLEY   CLEAR     64  55  72 NW9       30.20R
6HR MIN TEMP:  64; 6HR MAX TEMP:  79;

BLAIR          CLEAR     62  55  78 NW5       30.21R
FREMONT        CLEAR     63  57  80 NW5       30.22S
MILLARD        CLEAR     66  56  70 N5        30.20S
OFFUTT AFB     CLEAR     66  58  73 N7        30.19R
PLATTSMOUTH    CLEAR     64  57  77 N6        30.19S
WAHOO          FAIR      61  57  87 N5        30.22R
$$



USA.gov is the U.S. government's official web portal to all federal, state and local government web resources and services.